Location: Pedholt
(56.0260°N, 10.2097°E)
Time: 06:21:03
(UTC+00:00)

Cosmos 1725 Rocket - Pass Details

Date: 14 July 2020
Orbit: 963 x 990 km, 82.9° (Epoch: 14 August)

Event Time Altitude Azimuth Distance (km) Brightness Sun altitude
Exits shadow 01:21:06 - 184° (S) 2,916 5.9 -8.6°
Reaches altitude 10° 01:21:39 10° 183° (S) 2,709 5.8 -8.5°
Maximum altitude 01:27:51 80° 98° (E) 998 4.1 -8.1°
Drops below altitude 10° 01:34:09 10° 13° (NNE) 2,745 7.8 -7.7°
Sets 01:36:41 0° 13° (NNE) 3,701 8.7 -7.5°
